Location: Erp
(42.9417°N, 1.2009°E)
Time: 08:42:08
(UTC+00:00)

Cosmos 1500 Rocket - Pass Details

Date: 12 January 2026
Orbit: 597 x 623 km, 82.5° (Epoch: 17 February)

Event Time Altitude Azimuth Distance (km) Brightness Sun altitude
Rises 17:11:00 0° 347° (NNW) 2,911 6.9 -5.5°
Reaches altitude 10° 17:13:16 10° 343° (NNW) 2,002 6.1 -5.9°
Maximum altitude 17:17:37 56° 266° (W) 746 4.4 -6.6°
Drops below altitude 10° 17:21:55 10° 188° (S) 1,987 6.6 -7.3°
Sets 17:24:10 0° 184° (S) 2,887 7.4 -7.7°
